CEB993 RPLL-RPMR

Flight info

Callsign CEB993
Flight time N/A
Altitude 35000
Route VERDE2V VERDE A461 SAJ W3 IOO B472 COT W19 MELBY MELBY3P
Aircraft A321/M-SDE3FGHIRWY/LB1

Departure

Time N/A
Airport Ninoy Aquino International Airport (RPLL)

Arrival

Time 2026-05-01 07:41
Airport General Santos International Airport (RPMR)
Time Latitude Longitude Altitude Speed Heading
2026-05-01 07:23 6.84891 124.46707 28837 ft 468 kts 139°
2026-05-01 07:23 6.79807 124.50824 26744 ft 472 kts 139°
2026-05-01 07:24 6.77259 124.52885 25648 ft 474 kts 139°
2026-05-01 07:24 6.74694 124.54960 24548 ft 475 kts 139°
2026-05-01 07:24 6.72108 124.57052 23444 ft 476 kts 139°
2026-05-01 07:24 6.69530 124.59135 22353 ft 475 kts 139°
2026-05-01 07:25 6.66982 124.61196 21381 ft 473 kts 139°
2026-05-01 07:25 6.64395 124.63208 20996 ft 456 kts 141°
2026-05-01 07:25 6.61907 124.65085 20768 ft 439 kts 141°
2026-05-01 07:25 6.59483 124.66907 20515 ft 436 kts 141°
2026-05-01 07:26 6.57051 124.68742 20145 ft 433 kts 141°
2026-05-01 07:26 6.54661 124.70550 19672 ft 430 kts 141°
2026-05-01 07:26 6.52287 124.72349 19090 ft 426 kts 141°
2026-05-01 07:26 6.49921 124.74143 18458 ft 422 kts 141°
2026-05-01 07:27 6.47579 124.75919 17843 ft 419 kts 140°
2026-05-01 07:27 6.45277 124.77665 17223 ft 416 kts 140°
2026-05-01 07:27 6.42964 124.79420 16597 ft 413 kts 141°
2026-05-01 07:27 6.40709 124.81178 15986 ft 409 kts 138°
2026-05-01 07:28 6.38654 124.83134 15360 ft 405 kts 131°
2026-05-01 07:28 6.36847 124.85289 14735 ft 401 kts 125°
2026-05-01 07:28 6.35226 124.87564 14103 ft 399 kts 123°
2026-05-01 07:28 6.33651 124.89851 13482 ft 396 kts 123°
2026-05-01 07:29 6.32104 124.92099 12860 ft 393 kts 123°
2026-05-01 07:29 6.30495 124.94325 12238 ft 390 kts 126°
2026-05-01 07:29 6.28789 124.96416 11753 ft 383 kts 128°
2026-05-01 07:29 6.27106 124.98422 11442 ft 370 kts 128°
2026-05-01 07:30 6.25476 125.00357 11161 ft 357 kts 128°
2026-05-01 07:30 6.23887 125.02246 10907 ft 345 kts 128°
2026-05-01 07:30 6.22363 125.04059 10674 ft 333 kts 128°
2026-05-01 07:30 6.20893 125.05810 10476 ft 321 kts 128°
2026-05-01 07:31 6.19477 125.07495 10293 ft 310 kts 128°
2026-05-01 07:31 6.15481 125.12251 9540 ft 289 kts 128°
2026-05-01 07:32 6.12900 125.15325 8782 ft 288 kts 128°
2026-05-01 07:32 6.11603 125.16865 8407 ft 287 kts 129°
2026-05-01 07:33 6.08143 125.18694 7639 ft 289 kts 171°
2026-05-01 07:33 6.06131 125.18926 7277 ft 289 kts 173°
2026-05-01 07:33 6.02147 125.19357 6544 ft 287 kts 172°
2026-05-01 07:34 6.00169 125.19587 6183 ft 286 kts 172°
2026-05-01 07:34 5.96236 125.20059 5485 ft 280 kts 172°
2026-05-01 07:34 5.94318 125.20293 5139 ft 268 kts 172°
2026-05-01 07:35 5.92506 125.20513 4804 ft 257 kts 172°
2026-05-01 07:35 5.90745 125.20638 4448 ft 247 kts 186°
2026-05-01 07:35 5.89195 125.20037 4113 ft 236 kts 219°
2026-05-01 07:35 5.88202 125.18835 4090 ft 212 kts 244°
2026-05-01 07:36 5.87814 125.17443 4062 ft 203 kts 262°
2026-05-01 07:36 5.87654 125.16057 4004 ft 201 kts 265°
2026-05-01 07:36 5.87522 125.14693 3919 ft 187 kts 265°
2026-05-01 07:36 5.87418 125.13415 3850 ft 185 kts 272°
2026-05-01 07:37 5.88902 125.11608 3530 ft 176 kts 348°
2026-05-01 07:37 5.90127 125.11443 3305 ft 175 kts 355°
2026-05-01 07:37 5.91340 125.11329 3070 ft 174 kts 356°
2026-05-01 07:38 5.92542 125.11207 2833 ft 174 kts 355°
2026-05-01 07:38 5.93735 125.11077 2605 ft 168 kts 354°
2026-05-01 07:38 5.95939 125.10817 2269 ft 152 kts 354°
2026-05-01 07:39 5.96990 125.10690 2093 ft 151 kts 354°
2026-05-01 07:39 5.98046 125.10562 1895 ft 151 kts 354°
2026-05-01 07:39 6.00135 125.10309 1463 ft 151 kts 354°
2026-05-01 07:40 6.01183 125.10181 1244 ft 151 kts 353°
2026-05-01 07:40 6.02229 125.10049 978 ft 151 kts 354°
2026-05-01 07:40 6.03275 125.09927 781 ft 151 kts 353°
2026-05-01 07:40 6.04333 125.09795 589 ft 151 kts 353°
2026-05-01 07:41 6.05334 125.09678 534 ft 127 kts 352°
2026-05-01 07:41 6.05938 125.09600 534 ft 65 kts 354°
2026-05-01 07:41 6.06479 125.09539 534 ft 12 kts
2026-05-01 07:42 6.06531 125.09543 534 ft 1 kts 339°
2026-05-01 07:42 6.06529 125.09532 534 ft 3 kts 230°
2026-05-01 07:42 6.06501 125.09530 534 ft 5 kts 174°
2026-05-01 07:42 6.06456 125.09536 534 ft 7 kts 172°
2026-05-01 07:43 6.06397 125.09544 534 ft 9 kts 172°
2026-05-01 07:43 6.06323 125.09554 534 ft 11 kts 172°
2026-05-01 07:43 6.06140 125.09576 534 ft 14 kts 172°
2026-05-01 07:44 6.05931 125.09602 534 ft 14 kts 173°
2026-05-01 07:44 6.05823 125.09626 534 ft 4 kts 121°
2026-05-01 07:45 6.05821 125.09664 534 ft 6 kts 82°
2026-05-01 07:45 6.05827 125.09710 533 ft 7 kts 83°
2026-05-01 07:45 6.05833 125.09764 533 ft 8 kts 83°
2026-05-01 07:45 6.05841 125.09823 533 ft 7 kts 83°
2026-05-01 07:46 6.05828 125.09860 533 ft 5 kts 148°
2026-05-01 07:46 6.05783 125.09870 533 ft 7 kts 172°
2026-05-01 07:46 6.05708 125.09882 533 ft 2 kts 139°
2026-05-01 07:47 6.05703 125.09903 533 ft 3 kts 86°
2026-05-01 07:47 6.05707 125.09933 533 ft 4 kts 83°
2026-05-01 07:47 6.05709 125.09955 533 ft 3 kts 83°
2026-05-01 07:47 6.05710 125.09964 533 ft 0 kts 83°